NOAA 16 DEB, 41510

Orbit data source: Space-Track

NOAA 16 DEB, 41510 is space debris in SSO originally from a launch on Thu, 21 Sep 2000 UTC launched from the Air Force Western Test Range (AFWTR). Debris objects in space refer to the collection of defunct objects orbiting the Earth. Examples of debris include non-operational satellites, rocket bodies, and fragments generated from explosions, collisions, or faulty payload assembly.

Loading next visibility...
Identifier
41510, 2000-055MJ
Orbit
SSO
Country
Flag of USUS
Related business
Manufacturer
Unknown
Mission
Spacecraft
Bus & Motor
Unknown
Mass
Unknown
Launch date (UTC)
2000-09-21 (26 years ago)
Launch vehicle
Unknown
Launch site
Air Force Western Test Range (AFWTR)
Object type
Payload
Rocket body
Debris
Shape & HBR
Unknown shape, 0.1 m
Radar Cross Section
Small (<0.1 m²)

Expand to show TLE details & history
Last TLE update: 10 hours ago

TLE from 10 hours ago
0 NOAA 16 DEB
1 41510U 00055MJ  26124.11393867  .00004022  00000-0  15848-2 0  9990
2 41510  98.7532 217.5552 0026075 139.5227 220.7901 14.29517531523091
Epoch: 2026-05-04T02:44Z
TLE epoch observation values (Epoch: 2026-05-04T02:44:04.301Z)
Latitude
0.00006°
Longitude
-45.47052°
Altitude
810.451 km
Speed
7.441 km/s
True Right ascension
14h 30m 13s
True Declination
0° 00' 00"
Sunlit
Object was in full shadow at epoch
Visualization orbit readout
Latitude
Unknown
Longitude
Unknown
Altitude
Unknown
Speed
Unknown
Apparent Right ascension
Unknown
Apparent Declination
Unknown
Sunlit
N/A
Visualization observer readout
Local Sidereal Time
20:30:22
Azimuth
Unknown
Elevation
Unknown
Doppler factor
Unknown
Orbital elements
Apogee altitude
809.184 km
Perigee altitude
771.8 km
Semi-major axis
7,168.629 km
Eccentricity
0.00261
Inclination
98.7532°
RAAN
217.5552°
Arg. of periapsis
139.5227°
True anomaly
220.59538°
Mean anomaly
220.7901°
Eccentric anomaly
220.69269°
Mean motion
3.57593 °/min
Orbital period
100.67 mins
BSTAR
0.0015848
Loading maneuver chart data...
Computing Atmospheric mass density...
Loading historical data...
Loading historical data...
Loading historical data...
Loading historical data...
Loading historical data...
Loading historical data...
Loading historical data...

Documentation

Showing up to 5 results
|